EW0380 Weather Reports


Display with metric or nautical units.
time (UTC)temp
F
wind
direction
speed
MPH
gust
MPH
rain 1hr
in
rain 24hr
in
rain mn
in
humidity
%
barometer
mb
20260902094920 74 0.0 0.0 0.00 0.00 0.00 99 1015.6
20260902093921 74 0.0 0.0 0.00 0.00 0.00 99 1015.6
20260902092920 74 0.0 0.0 0.00 0.00 0.00 99 1015.6
20260902091921 74 0.0 0.0 0.00 0.00 0.00 99 1015.6
20260902090920 73 163 1.0 2.0 0.00 0.00 0.00 99 1016.0
20260902085920 73 131 0.0 2.0 0.00 0.00 0.00 99 1016.0
20260902084940 73 139 1.0 3.0 0.00 0.00 0.00 99 1016.3
20260902083920 73 134 1.0 3.0 0.00 0.00 0.00 99 1016.3
20260902082920 73 0.0 0.0 0.00 0.00 0.00 99 1016.3
20260902081920 73 0.0 0.0 0.00 0.00 0.00 98 1016.4
20260902080940 73 141 1.0 2.0 0.00 0.00 0.00 98 1016.0
20260902075920 73 0.0 0.0 0.00 0.00 0.00 98 1016.0
20260902074920 73 0.0 0.0 0.00 0.00 0.00 98 1016.4
20260902073920 73 0.0 0.0 0.00 0.00 0.00 97 1016.4
20260902072921 73 0.0 0.0 0.00 0.01 0.00 96 1016.4
20260902071940 73 156 0.0 2.0 0.00 0.01 0.00 96 1016.7
20260902070940 73 0.0 0.0 0.00 0.01 0.00 95 1016.4
20260902065920 74 180 0.0 2.0 0.00 0.01 0.00 94 1016.4
20260902064921 74 203 2.0 4.0 0.00 0.01 0.00 94 1016.7
20260902063920 73 157 2.0 2.0 0.00 0.01 0.00 95 1016.4
20260902062941 73 0.0 0.0 0.00 0.01 0.00 95 1016.7
20260902061920 73 0.0 0.0 0.00 0.01 0.00 94 1016.6
20260902060940 74 0.0 0.0 0.00 0.01 0.00 94 1016.6
20260902055920 74 144 0.0 2.0 0.00 0.01 0.00 94 1016.7
20260902054920 74 0.0 0.0 0.00 0.01 0.00 92 1016.6
20260902053940 74 0.0 0.0 0.00 0.01 0.00 93 1016.6
20260902053001 74 133 1.0 2.0 0.00 0.01 0.00 91 1016.6
20260902051940 74 144 2.0 2.0 0.00 0.01 0.00 92 1016.6
20260902050920 74 0.0 0.0 0.00 0.01 0.00 92 1016.3
20260902050001 74 0.0 0.0 0.00 0.01 0.00 92 1016.6
20260902044922 74 0.0 0.0 0.00 0.01 0.00 91 1016.3
20260902043920 74 0.0 0.0 0.00 0.01 0.00 90 1016.6
20260902042921 74 0.0 0.0 0.00 0.01 0.00 89 1016.3
20260902041920 74 0.0 0.0 0.00 0.01 0.00 90 1016.3
20260902040940 75 0.0 0.0 0.00 0.01 0.00 88 1016.0
20260902035922 74 0.0 0.0 0.00 0.01 0.01 88 1016.3
20260902034921 75 0.0 0.0 0.00 0.01 0.01 88 1016.0
20260902033921 76 304 2.0 2.0 0.00 0.01 0.01 84 1016.0
20260902032920 77 276 5.0 6.0 0.00 0.01 0.01 80 1016.0
20260902031921 77 0.0 0.0 0.00 0.01 0.01 82 1016.0
20260902030921 76 0.0 0.0 0.00 0.01 0.01 83 1016.0
20260902025920 75 0.0 0.0 0.00 0.01 0.01 87 1015.9
20260902024921 75 0.0 0.0 0.00 0.01 0.01 89 1015.9
20260902023921 76 0.0 0.0 0.00 0.01 0.01 89 1015.9
20260902022941 75 0.0 0.0 0.00 0.01 0.01 90 1015.9
20260902021920 75 0.0 0.0 0.00 0.01 0.01 89 1015.9
20260902020921 74 0.0 0.0 0.00 0.01 0.01 97 1015.9
20260902015921 75 0.0 0.0 0.00 0.01 0.01 98 1015.9
20260902014920 75 111 1.0 2.0 0.00 0.01 0.01 99 1016.2
20260902013933 75 0.0 0.0 0.00 0.01 0.01 98 1015.9
20260902012920 76 0.0 0.0 0.00 0.01 0.01 97 1015.6
20260902011920 76 0.0 0.0 0.00 0.01 0.01 97 1015.6
20260902010920 76 0.0 0.0 0.00 0.01 0.01 97 1015.6
20260902005920 77 0.0 0.0 0.00 0.01 0.01 96 1015.2
20260902004941 77 0.0 0.0 0.00 0.01 0.01 95 1015.2
20260902003921 78 0.0 0.0 0.00 0.01 0.01 94 1015.2
20260902002920 78 0.0 0.0 0.00 0.01 0.01 94 1015.2
20260902001921 78 0.0 0.0 0.00 0.01 0.01 91 1014.8
20260902000920 79 0.0 0.0 0.00 0.01 0.01 90 1015.2
20260901235920 80 0.0 0.0 0.00 0.01 0.01 86 1015.2
20260901234921 81 0.0 0.0 0.00 0.01 0.01 85 1015.2
20260901233921 82 0.0 0.0 0.00 0.01 0.01 83 1015.0
20260901232941 82 0.0 0.0 0.00 0.01 0.01 83 1015.3
20260901231920 83 287 2.0 2.0 0.00 0.01 0.01 80 1015.6
20260901230941 83 276 2.0 4.0 0.00 0.01 0.01 78 1015.6
20260901225921 83 303 3.0 4.0 0.00 0.01 0.01 80 1015.2
20260901224941 83 298 3.0 4.0 0.00 0.01 0.01 78 1015.6
20260901223920 84 299 2.0 3.0 0.00 0.01 0.01 76 1015.6
20260901222921 84 291 3.0 5.0 0.00 0.01 0.01 76 1015.6
20260901221921 84 297 5.0 9.0 0.00 0.01 0.01 77 1015.6
20260901220921 84 291 4.0 6.0 0.00 0.01 0.01 74 1015.6
20260901215921 85 280 7.0 9.0 0.00 0.01 0.01 76 1015.3
20260901214941 85 300 5.0 7.0 0.00 0.01 0.01 76 1015.7
20260901213921 85 301 6.0 7.0 0.00 0.01 0.01 76 1015.7
20260901212920 85 330 6.0 7.0 0.00 0.01 0.01 77 1015.4
20260901211920 85 327 6.0 8.0 0.00 0.01 0.01 77 1015.7
20260901210921 86 313 6.0 8.0 0.00 0.01 0.01 74 1015.7
20260901205920 86 299 5.0 6.0 0.00 0.01 0.01 74 1015.7
20260901204920 85 309 6.0 7.0 0.00 0.01 0.01 77 1015.7
20260901203920 86 311 6.0 9.0 0.00 0.01 0.01 76 1015.8
20260901202920 86 324 5.0 7.0 0.00 0.01 0.01 76 1015.4
20260901201920 87 298 6.0 8.0 0.00 0.01 0.01 74 1015.1
20260901200921 87 322 6.0 7.0 0.00 0.01 0.01 76 1015.1
20260901195920 88 328 4.0 5.0 0.00 0.01 0.01 75 1015.1
20260901194920 88 278 3.0 4.0 0.00 0.01 0.01 69 1014.8
20260901193920 88 274 3.0 5.0 0.00 0.01 0.01 70 1015.1
20260901192920 88 285 3.0 5.0 0.00 0.01 0.01 68 1015.1
20260901191920 88 284 5.0 7.0 0.00 0.01 0.01 70 1015.5
20260901190940 88 291 2.0 2.0 0.00 0.01 0.01 66 1015.4
20260901185920 88 294 4.0 6.0 0.00 0.01 0.01 72 1015.5
20260901184920 88 291 4.0 6.0 0.00 0.01 0.01 70 1015.8
20260901183920 87 297 4.0 5.0 0.00 0.01 0.01 70 1015.7
20260901182920 87 292 6.0 8.0 0.00 0.01 0.01 73 1015.7
20260901181920 87 289 6.0 7.0 0.00 0.01 0.01 74 1015.7
20260901180920 87 282 5.0 7.0 0.00 0.01 0.01 73 1015.7
20260901180000 86 261 2.0 2.0 0.00 0.01 0.01 72 1016.1
20260901174920 86 282 5.0 7.0 0.00 0.01 0.01 70 1016.1
20260901173920 86 269 4.0 4.0 0.00 0.01 0.01 70 1016.1
20260901172920 86 272 4.0 7.0 0.00 0.01 0.01 70 1016.4
20260901171920 85 272 4.0 7.0 0.00 0.01 0.01 75 1016.7
20260901170920 84 283 7.0 9.0 0.00 0.01 0.01 74 1016.3
20260901165920 83 285 8.0 9.0 0.00 0.01 0.01 76 1016.3
20260901164920 85 273 5.0 9.0 0.00 0.01 0.01 74 1016.7
20260901163940 85 287 6.0 11.0 0.00 0.01 0.01 73 1016.3
20260901162920 84 284 7.0 9.0 0.00 0.01 0.01 75 1016.3
20260901161920 84 286 8.0 9.0 0.00 0.01 0.01 75 1016.3
20260901160920 84 297 9.0 13.0 0.00 0.01 0.01 76 1016.3
20260901155940 83 285 6.0 7.0 0.00 0.01 0.01 77 1016.3
20260901154920 84 282 6.0 7.0 0.00 0.01 0.01 77 1016.3
20260901153920 84 273 4.0 6.0 0.00 0.01 0.01 74 1015.9
20260901152920 84 290 6.0 9.0 0.00 0.01 0.01 77 1016.6
20260901151940 83 293 8.0 9.0 0.00 0.01 0.01 77 1016.6
20260901150920 82 298 8.0 9.0 0.00 0.01 0.01 79 1016.2
20260901145940 82 273 8.0 11.0 0.00 0.01 0.01 79 1016.2
20260901144921 82 300 9.0 11.0 0.00 0.01 0.01 79 1015.9
20260901143920 82 299 9.0 11.0 0.00 0.01 0.01 77 1015.9
20260901142920 82 288 6.0 7.0 0.00 0.01 0.01 80 1015.9
20260901141921 82 278 7.0 9.0 0.00 0.01 0.01 79 1015.9
20260901140920 82 280 7.0 9.0 0.00 0.01 0.01 80 1015.9
20260901135921 82 275 7.0 9.0 0.00 0.01 0.01 79 1015.9
20260901134920 82 263 5.0 7.0 0.00 0.01 0.01 80 1015.9
20260901133920 81 291 3.0 4.0 0.00 0.01 0.01 82 1015.9
20260901132920 80 202 2.0 3.0 0.00 0.01 0.01 84 1015.9
20260901131920 80 229 2.0 2.0 0.00 0.01 0.01 85 1015.9
20260901130920 80 179 2.0 2.0 0.00 0.01 0.01 85 1016.2
20260901125919 79 246 3.0 4.0 0.00 0.01 0.01 86 1016.2
20260901124920 78 236 1.0 2.0 0.00 0.01 0.01 89 1015.8
20260901123920 77 188 1.0 2.0 0.00 0.01 0.01 89 1016.1
20260901122920 76 0.0 0.0 0.00 0.01 0.01 91 1016.4
20260901121920 76 0.0 0.0 0.00 0.01 0.01 91 1016.0
20260901120920 74 0.0 0.0 0.00 0.01 0.01 93 1016.0
20260901115941 74 0.0 0.0 0.00 0.01 0.01 95 1016.0
20260901114920 74 177 1.0 2.0 0.00 0.01 0.01 95 1015.7
20260901113920 74 0.0 0.0 0.00 0.01 0.01 95 1016.0
20260901112920 74 0.0 0.0 0.00 0.01 0.01 95 1015.7
20260901111920 74 0.0 0.0 0.00 0.01 0.01 95 1015.7
20260901110920 73 168 1.0 2.0 0.00 0.01 0.01 96 1015.8
20260901105920 73 143 2.0 3.0 0.00 0.01 0.01 97 1015.8
20260901104940 73 171 1.0 2.0 0.00 0.01 0.01 96 1015.8
20260901103920 73 129 2.0 5.0 0.00 0.01 0.01 96 1015.8
20260901103020 73 0.0 0.0 0.00 0.01 0.01 96 1015.5
20260901101920 73 0.0 0.0 0.00 0.01 0.01 96 1015.5
20260901100920 73 0.0 0.0 0.00 0.01 0.01 96 1015.5
20260901095922 73 0.0 0.0 0.00 0.01 0.01 96 1015.1